TimeEDT,TemperatureF,Dew PointF,Humidity,Sea Level PressureIn,VisibilityMPH,Wind Direction,Wind SpeedMPH,Gust SpeedMPH,PrecipitationIn,Events,Conditions,WindDirDegrees,DateUTC
12:53 AM,72.0,69.1,91,30.00,4.0,Calm,Calm,-,N/A,,Clear,0,2013-08-30 04:53:00
1:53 AM,71.1,68.0,90,29.98,3.0,Calm,Calm,-,N/A,,Mostly Cloudy,0,2013-08-30 05:53:00
2:06 AM,71.6,69.8,94,30.03,3.0,Calm,Calm,-,N/A,,Scattered Clouds,0,2013-08-30 06:06:00
2:32 AM,71.6,68.0,88,30.03,2.5,Calm,Calm,-,N/A,,Scattered Clouds,0,2013-08-30 06:32:00
2:53 AM,71.1,69.1,93,29.97,2.5,Calm,Calm,-,N/A,,Scattered Clouds,0,2013-08-30 06:53:00
3:18 AM,69.8,68.0,94,30.02,1.8,Calm,Calm,-,N/A,,Partly Cloudy,0,2013-08-30 07:18:00
3:29 AM,69.8,68.0,94,30.02,2.0,Calm,Calm,-,N/A,,Clear,0,2013-08-30 07:29:00
3:39 AM,69.8,68.0,94,30.02,1.5,Calm,Calm,-,N/A,,Clear,0,2013-08-30 07:39:00
3:53 AM,70.0,68.0,93,29.97,1.5,Calm,Calm,-,N/A,,Clear,0,2013-08-30 07:53:00
4:27 AM,69.8,68.0,94,30.02,1.0,Calm,Calm,-,N/A,,Mist,0,2013-08-30 08:27:00
4:31 AM,69.8,68.0,94,30.02,0.8,Calm,Calm,-,N/A,,Mist,0,2013-08-30 08:31:00
4:39 AM,69.8,68.0,94,30.02,0.8,Calm,Calm,-,N/A,,Mist,0,2013-08-30 08:39:00
4:53 AM,70.0,68.0,93,29.97,0.8,Calm,Calm,-,N/A,,Mist,0,2013-08-30 08:53:00
5:09 AM,69.8,66.2,88,30.02,0.2,Calm,Calm,-,N/A,Fog,Fog,0,2013-08-30 09:09:00
5:42 AM,66.2,66.2,100,30.02,0.5,Calm,Calm,-,N/A,Fog,Fog,0,2013-08-30 09:42:00
5:53 AM,66.9,66.0,97,29.98,0.5,Calm,Calm,-,N/A,Fog,Fog,0,2013-08-30 09:53:00
6:53 AM,66.9,64.9,93,29.99,0.2,Calm,Calm,-,N/A,Fog,Fog,0,2013-08-30 10:53:00
7:53 AM,68.0,66.9,96,29.99,0.2,Calm,Calm,-,N/A,Fog,Fog,0,2013-08-30 11:53:00
8:53 AM,69.1,68.0,96,30.00,0.2,Calm,Calm,-,N/A,Fog,Fog,0,2013-08-30 12:53:00
9:53 AM,70.0,69.1,97,30.00,0.2,Calm,Calm,-,N/A,Fog,Fog,0,2013-08-30 13:53:00
10:14 AM,71.6,69.8,94,30.05,1.8,Calm,Calm,-,N/A,,Overcast,0,2013-08-30 14:14:00
10:19 AM,71.6,69.8,94,30.04,3.0,Calm,Calm,-,N/A,,Overcast,0,2013-08-30 14:19:00
10:53 AM,72.0,70.0,93,30.01,9.0,Variable,3.5,-,N/A,,Partly Cloudy,0,2013-08-30 14:53:00
11:53 AM,79.0,70.0,74,29.99,10.0,Variable,3.5,-,N/A,,Scattered Clouds,0,2013-08-30 15:53:00
12:53 PM,82.9,70.0,65,29.98,10.0,Calm,Calm,-,N/A,,Partly Cloudy,0,2013-08-30 16:53:00
1:53 PM,82.9,66.9,58,29.97,10.0,WNW,3.5,-,N/A,,Mostly Cloudy,300,2013-08-30 17:53:00
2:53 PM,84.0,66.0,55,29.96,10.0,Variable,4.6,-,N/A,,Partly Cloudy,0,2013-08-30 18:53:00
3:53 PM,86.0,68.0,55,29.94,10.0,Variable,3.5,-,N/A,,Clear,0,2013-08-30 19:53:00
4:53 PM,84.9,69.1,59,29.92,10.0,Calm,Calm,-,N/A,,Partly Cloudy,0,2013-08-30 20:53:00
5:53 PM,84.0,70.0,63,29.91,10.0,Calm,Calm,-,N/A,,Clear,0,2013-08-30 21:53:00
6:53 PM,82.9,69.1,63,29.90,10.0,Calm,Calm,-,N/A,,Clear,0,2013-08-30 22:53:00
7:53 PM,81.0,68.0,65,29.90,10.0,Calm,Calm,-,N/A,,Clear,0,2013-08-30 23:53:00
8:53 PM,78.1,70.0,76,29.90,10.0,Calm,Calm,-,N/A,,Partly Cloudy,0,2013-08-31 00:53:00
9:53 PM,78.1,69.1,74,29.90,10.0,Calm,Calm,-,N/A,,Clear,0,2013-08-31 01:53:00
10:53 PM,78.1,69.1,74,29.91,10.0,Calm,Calm,-,N/A,,Clear,0,2013-08-31 02:53:00
11:53 PM,75.9,69.1,79,29.89,10.0,Calm,Calm,-,N/A,,Clear,0,2013-08-31 03:53:00